{"data":{"norad_id":56423,"epoch":"2026-09-20T10:28:05.081952Z","epoch_age_seconds":117510,"freshness":"FRESH","line1":"1 56423U 23061BB  26263.43616993  .00000062  00000+0  11778-4 0  9997","line2":"2 56423  43.0053 159.7354 0001297 266.6579  93.4124 15.27576569186743","mean_motion":15.27576569,"eccentricity":0.0001297,"inclination_deg":43.0053,"raan_deg":159.7354,"arg_perigee_deg":266.6579,"mean_anomaly_deg":93.4124,"bstar":1.1778e-5,"rev_number":18674,"period_min":94.266960440659,"perigee_km":482.16947253803,"apogee_km":483.94926687633,"semimajor_km":6861.1963697072,"source":"CELESTRAK","updated_at":"2026-09-21T09:00:33.439268Z"}}